sat.trackr.live / text

‹ back to catalog

STARLINK-3248

NORAD 49748 · 2021-115AA

PAYLOAD ACTIVE UNKNOWN

§ Identity

Operator
Country
US
Launch date
2021-12-02
Launch site
AFETR
Launch vehicle
Mass (kg)
RCS (m²)

Purposes: comms

External: N2YO · Heavens-Above · Gunter

§ Orbital elements

Epoch: 2026-09-19T19:07:46.864416Z

Period
93.79 min
Inclination
53.1617°
Eccentricity
0.0001134
Mean motion
15.35400376 rev/d
Perigee alt
459.0 km
Apogee alt
460.5 km
Semi-major
6,837.9 km
B*
2.9584e-5
RAAN
350.7212°
Arg perigee
78.3850°
Mean anomaly
281.7281°
Rev number
26,493

§ Raw data

STARLINK-32481 49748U 21115AA  26262.79707019  .00000652  00000+0  29584-4 0  99942 49748  53.1617 350.7212 0001134  78.3850 281.7281 15.35400376264934

JSON: /api/v1/satellites/49748 · /tle

For live sub-satellite position, see the globe view (requires WebGL).

§ Visibility from observer

Set your observer location to see the next 7 days of passes ≥ 10°. The values pass through the URL so the page stays shareable.

No JS? Fill the form by hand. The geolocation button needs JavaScript.